Location: Melara
(45.0500°N, 11.1833°E)
Time: 22:45:47
(UTC+00:00)

USA 307 - Pass Details

Date: 26 May 2022
Orbit: 552 x 554 km, 54.0° (Epoch: 17 June)

Event Time Altitude Azimuth Distance (km) Brightness Sun altitude
Exits shadow 00:12:06 67° 116° (ESE) 603 2.8 -22.5°
Drops below altitude 10° 00:16:02 10° 59° (ENE) 1,843 6.1 -22.3°
Sets 00:18:17 0° 57° (ENE) 2,742 7.1 -22.2°
